Year,Month,Day,Hour,Minute,Value (Times are PST for barometer in hPa)
2013,03,20,00,00,978.26
2013,03,20,00,01,978.26
2013,03,20,00,02,978.26
2013,03,20,00,03,978.26
2013,03,20,00,04,978.26
2013,03,20,00,05,978.26
2013,03,20,00,06,978.26
2013,03,20,00,07,978.26
2013,03,20,00,08,978.26
2013,03,20,00,09,978.26
2013,03,20,00,10,977.85
2013,03,20,00,11,977.85
2013,03,20,00,12,977.85
2013,03,20,00,13,977.85
2013,03,20,00,14,977.85
2013,03,20,00,15,977.85
2013,03,20,00,16,977.85
2013,03,20,00,17,977.85
2013,03,20,00,18,977.85
2013,03,20,00,19,977.85
2013,03,20,00,20,977.85
2013,03,20,00,21,977.85
2013,03,20,00,22,977.85
2013,03,20,00,23,977.85
2013,03,20,00,24,977.85
2013,03,20,00,25,977.45
2013,03,20,00,26,977.45
2013,03,20,00,27,977.45
2013,03,20,00,28,977.45
2013,03,20,00,29,977.45
2013,03,20,00,30,977.45
2013,03,20,00,31,977.45
2013,03,20,00,32,977.45
2013,03,20,00,33,977.45
2013,03,20,00,34,977.45
2013,03,20,00,35,977.45
2013,03,20,00,36,977.45
2013,03,20,00,37,977.45
2013,03,20,00,38,977.45
2013,03,20,00,39,977.45
2013,03,20,00,40,977.07
2013,03,20,00,41,977.07
2013,03,20,00,42,977.07
2013,03,20,00,43,977.07
2013,03,20,00,44,977.07
2013,03,20,00,45,977.07
2013,03,20,00,46,977.07
2013,03,20,00,47,977.07
2013,03,20,00,48,977.07
2013,03,20,00,49,977.07
2013,03,20,00,50,977.07
2013,03,20,00,51,977.07
2013,03,20,00,52,977.07
2013,03,20,00,53,977.07
2013,03,20,00,54,977.07
2013,03,20,00,55,976.67
2013,03,20,00,56,976.67
2013,03,20,00,57,976.67
2013,03,20,00,58,976.67
2013,03,20,00,59,976.67
2013,03,20,01,00,976.67
2013,03,20,01,01,976.67
2013,03,20,01,02,976.67
2013,03,20,01,03,976.67
2013,03,20,01,04,976.67
2013,03,20,01,05,976.67
2013,03,20,01,06,976.67
2013,03,20,01,07,976.67
2013,03,20,01,08,976.67
2013,03,20,01,09,976.67
2013,03,20,01,10,976.26
2013,03,20,01,11,976.26
2013,03,20,01,12,976.26
2013,03,20,01,13,976.26
2013,03,20,01,14,976.26
2013,03,20,01,15,976.26
2013,03,20,01,16,976.26
2013,03,20,01,17,976.26
2013,03,20,01,18,976.26
2013,03,20,01,19,976.26
2013,03,20,01,20,976.26
2013,03,20,01,21,976.26
2013,03,20,01,22,976.26
2013,03,20,01,23,976.26
2013,03,20,01,24,976.26
2013,03,20,01,25,976.06
2013,03,20,01,26,976.06
2013,03,20,01,27,976.06
2013,03,20,01,28,976.06
2013,03,20,01,29,976.06
2013,03,20,01,30,976.06
2013,03,20,01,31,976.06
2013,03,20,01,32,976.06
2013,03,20,01,33,976.06
2013,03,20,01,34,976.06
2013,03,20,01,35,976.06
2013,03,20,01,36,976.06
2013,03,20,01,37,976.06
2013,03,20,01,38,976.06
2013,03,20,01,39,976.06
2013,03,20,01,40,975.62
2013,03,20,01,41,975.62
2013,03,20,01,42,975.62
2013,03,20,01,43,975.62
2013,03,20,01,44,975.62
2013,03,20,01,45,975.62
2013,03,20,01,46,975.62
2013,03,20,01,47,975.62
2013,03,20,01,48,975.62
2013,03,20,01,49,975.62
2013,03,20,01,50,975.62
2013,03,20,01,51,975.62
2013,03,20,01,52,975.62
2013,03,20,01,53,975.62
2013,03,20,01,54,975.62
2013,03,20,01,55,975.38
2013,03,20,01,56,975.38
2013,03,20,01,57,975.38
2013,03,20,01,58,975.38
2013,03,20,01,59,975.38
2013,03,20,02,00,975.38
2013,03,20,02,01,975.38
2013,03,20,02,02,975.38
2013,03,20,02,03,975.38
2013,03,20,02,04,975.38
2013,03,20,02,05,975.38
2013,03,20,02,06,975.38
2013,03,20,02,07,975.38
2013,03,20,02,08,975.38
2013,03,20,02,09,975.38
2013,03,20,02,10,975.18
2013,03,20,02,11,975.18
2013,03,20,02,12,975.18
2013,03,20,02,13,975.18
2013,03,20,02,14,975.18
2013,03,20,02,15,975.18
2013,03,20,02,16,975.18
2013,03,20,02,17,975.18
2013,03,20,02,18,975.18
2013,03,20,02,19,975.18
2013,03,20,02,20,975.18
2013,03,20,02,21,975.18
2013,03,20,02,22,975.18
2013,03,20,02,23,975.18
2013,03,20,02,24,975.18
2013,03,20,02,25,975.08
2013,03,20,02,26,975.08
2013,03,20,02,27,975.08
2013,03,20,02,28,975.08
2013,03,20,02,29,975.08
2013,03,20,02,30,975.08
2013,03,20,02,31,975.08
2013,03,20,02,32,975.08
2013,03,20,02,33,975.08
2013,03,20,02,34,975.08
2013,03,20,02,35,975.08
2013,03,20,02,36,975.08
2013,03,20,02,37,975.08
2013,03,20,02,38,975.08
2013,03,20,02,39,975.08
2013,03,20,02,40,974.64
2013,03,20,02,41,974.64
2013,03,20,02,42,974.64
2013,03,20,02,43,974.64
2013,03,20,02,44,974.64
2013,03,20,02,45,974.64
2013,03,20,02,46,974.64
2013,03,20,02,47,974.64
2013,03,20,02,48,974.64
2013,03,20,02,49,974.64
2013,03,20,02,50,974.64
2013,03,20,02,51,974.64
2013,03,20,02,52,974.64
2013,03,20,02,53,974.64
2013,03,20,02,54,974.64
2013,03,20,02,55,974.53
2013,03,20,02,56,974.53
2013,03,20,02,57,974.53
2013,03,20,02,58,974.53
2013,03,20,02,59,974.53
2013,03,20,03,00,974.53
2013,03,20,03,01,974.53
2013,03,20,03,02,974.53
2013,03,20,03,03,974.53
2013,03,20,03,04,974.53
2013,03,20,03,05,974.53
2013,03,20,03,06,974.53
2013,03,20,03,07,974.53
2013,03,20,03,08,974.53
2013,03,20,03,09,974.53
2013,03,20,03,10,974.09
2013,03,20,03,11,974.09
2013,03,20,03,12,974.09
2013,03,20,03,13,974.09
2013,03,20,03,14,974.09
2013,03,20,03,15,974.09
2013,03,20,03,16,974.09
2013,03,20,03,17,974.09
2013,03,20,03,18,974.09
2013,03,20,03,19,974.09
2013,03,20,03,20,974.09
2013,03,20,03,21,974.09
2013,03,20,03,22,974.09
2013,03,20,03,23,974.09
2013,03,20,03,24,974.09
2013,03,20,03,25,973.76
2013,03,20,03,26,973.76
2013,03,20,03,27,973.76
2013,03,20,03,28,973.76
2013,03,20,03,29,973.76
2013,03,20,03,30,973.76
2013,03,20,03,31,973.76
2013,03,20,03,32,973.76
2013,03,20,03,33,973.76
2013,03,20,03,34,973.76
2013,03,20,03,35,973.76
2013,03,20,03,36,973.76
2013,03,20,03,37,973.76
2013,03,20,03,38,973.76
2013,03,20,03,39,973.76
2013,03,20,03,40,973.45
2013,03,20,03,41,973.45
2013,03,20,03,42,973.45
2013,03,20,03,43,973.45
2013,03,20,03,44,973.45
2013,03,20,03,45,973.45
2013,03,20,03,46,973.45
2013,03,20,03,47,973.45
2013,03,20,03,48,973.45
2013,03,20,03,49,973.45
2013,03,20,03,50,973.45
2013,03,20,03,51,973.45
2013,03,20,03,52,973.45
2013,03,20,03,53,973.45
2013,03,20,03,54,973.45
2013,03,20,03,55,973.45
2013,03,20,03,56,972.74
2013,03,20,03,57,972.74
2013,03,20,03,58,972.74
2013,03,20,03,59,972.74
2013,03,20,04,00,972.74
2013,03,20,04,01,972.74
2013,03,20,04,02,972.74
2013,03,20,04,03,972.74
2013,03,20,04,04,972.74
2013,03,20,04,05,972.74
2013,03,20,04,06,972.74
2013,03,20,04,07,972.74
2013,03,20,04,08,972.74
2013,03,20,04,09,972.74
2013,03,20,04,10,972.40
2013,03,20,04,11,972.40
2013,03,20,04,12,972.40
2013,03,20,04,13,972.40
2013,03,20,04,14,972.40
2013,03,20,04,15,972.40
2013,03,20,04,16,972.40
2013,03,20,04,17,972.40
2013,03,20,04,18,972.40
2013,03,20,04,19,972.40
2013,03,20,04,20,972.40
2013,03,20,04,21,972.40
2013,03,20,04,22,972.40
2013,03,20,04,23,972.40
2013,03,20,04,24,972.40
2013,03,20,04,25,971.99
2013,03,20,04,26,971.99
2013,03,20,04,27,971.99
2013,03,20,04,28,971.99
2013,03,20,04,29,971.99
2013,03,20,04,30,971.99
2013,03,20,04,31,971.99
2013,03,20,04,32,971.99
2013,03,20,04,33,971.99
2013,03,20,04,34,971.99
2013,03,20,04,35,971.99
2013,03,20,04,36,971.99
2013,03,20,04,37,971.99
2013,03,20,04,38,971.99
2013,03,20,04,39,971.99
2013,03,20,04,40,971.42
2013,03,20,04,41,971.42
2013,03,20,04,42,971.42
2013,03,20,04,43,971.42
2013,03,20,04,44,971.42
2013,03,20,04,45,971.42
2013,03,20,04,46,971.42
2013,03,20,04,47,971.42
2013,03,20,04,48,971.42
2013,03,20,04,49,971.42
2013,03,20,04,50,971.42
2013,03,20,04,51,971.42
2013,03,20,04,52,971.42
2013,03,20,04,53,971.42
2013,03,20,04,54,971.42
2013,03,20,04,55,970.64
2013,03,20,04,56,970.64
2013,03,20,04,57,970.64
2013,03,20,04,58,970.64
2013,03,20,04,59,970.64
2013,03,20,05,00,970.64
2013,03,20,05,01,970.64
2013,03,20,05,02,970.64
2013,03,20,05,03,970.64
2013,03,20,05,04,970.64
2013,03,20,05,05,970.64
2013,03,20,05,06,970.64
2013,03,20,05,07,970.64
2013,03,20,05,08,970.64
2013,03,20,05,09,970.64
2013,03,20,05,10,970.91
2013,03,20,05,11,970.91
2013,03,20,05,12,970.91
2013,03,20,05,13,970.91
2013,03,20,05,14,970.91
2013,03,20,05,15,970.91
2013,03,20,05,16,970.91
2013,03,20,05,17,970.91
2013,03,20,05,18,970.91
2013,03,20,05,19,970.91
2013,03,20,05,20,970.91
2013,03,20,05,21,970.91
2013,03,20,05,22,970.91
2013,03,20,05,23,970.91
2013,03,20,05,24,970.91
2013,03,20,05,25,970.47
2013,03,20,05,26,970.47
2013,03,20,05,27,970.47
2013,03,20,05,28,970.47
2013,03,20,05,29,970.47
2013,03,20,05,30,970.47
2013,03,20,05,31,970.47
2013,03,20,05,32,970.47
2013,03,20,05,33,970.47
2013,03,20,05,34,970.47
2013,03,20,05,35,970.47
2013,03,20,05,36,970.47
2013,03,20,05,37,970.47
2013,03,20,05,38,970.47
2013,03,20,05,39,970.47
2013,03,20,05,40,970.40
2013,03,20,05,41,970.40
2013,03,20,05,42,970.40
2013,03,20,05,43,970.40
2013,03,20,05,44,970.40
2013,03,20,05,45,970.40
2013,03,20,05,46,970.40
2013,03,20,05,47,970.40
2013,03,20,05,48,970.40
2013,03,20,05,49,970.40
2013,03,20,05,50,970.40
2013,03,20,05,51,970.40
2013,03,20,05,52,970.40
2013,03,20,05,53,970.40
2013,03,20,05,54,970.40
2013,03,20,05,55,970.20
2013,03,20,05,56,970.20
2013,03,20,05,57,970.20
2013,03,20,05,58,970.20
2013,03,20,05,59,970.20
2013,03,20,06,00,970.20
2013,03,20,06,01,970.20
2013,03,20,06,02,970.20
2013,03,20,06,03,970.20
2013,03,20,06,04,970.20
2013,03,20,06,05,970.20
2013,03,20,06,06,970.20
2013,03,20,06,07,970.20
2013,03,20,06,08,970.20
2013,03,20,06,09,970.20
2013,03,20,06,10,970.20
2013,03,20,06,11,970.20
2013,03,20,06,12,969.93
2013,03,20,06,13,969.93
2013,03,20,06,14,969.93
2013,03,20,06,15,969.93
2013,03,20,06,16,969.93
2013,03,20,06,17,969.93
2013,03,20,06,18,969.93
2013,03,20,06,19,969.93
2013,03,20,06,20,969.93
2013,03,20,06,21,969.93
2013,03,20,06,22,969.93
2013,03,20,06,23,969.93
2013,03,20,06,24,969.93
2013,03,20,06,25,969.86
2013,03,20,06,26,969.86
2013,03,20,06,27,969.86
2013,03,20,06,28,969.86
2013,03,20,06,29,969.86
2013,03,20,06,30,969.86
2013,03,20,06,31,969.86
2013,03,20,06,32,969.86
2013,03,20,06,33,969.86
2013,03,20,06,34,969.86
2013,03,20,06,35,969.86
2013,03,20,06,36,969.86
2013,03,20,06,37,969.86
2013,03,20,06,38,969.86
2013,03,20,06,39,969.86
2013,03,20,06,40,969.45
2013,03,20,06,41,969.45
2013,03,20,06,42,969.45
2013,03,20,06,43,969.45
2013,03,20,06,44,969.45
2013,03,20,06,45,969.45
2013,03,20,06,46,969.45
2013,03,20,06,47,969.45
2013,03,20,06,48,969.45
2013,03,20,06,49,969.45
2013,03,20,06,50,969.45
2013,03,20,06,51,969.45
2013,03,20,06,52,969.45
2013,03,20,06,53,969.45
2013,03,20,06,54,969.45
2013,03,20,06,55,968.81
2013,03,20,06,56,968.81
2013,03,20,06,57,968.81
2013,03,20,06,58,968.81
2013,03,20,06,59,968.81
2013,03,20,07,00,968.81
2013,03,20,07,01,968.81
2013,03,20,07,02,968.81
2013,03,20,07,03,968.81
2013,03,20,07,04,968.81
2013,03,20,07,05,968.81
2013,03,20,07,06,968.81
2013,03,20,07,07,968.81
2013,03,20,07,08,968.81
2013,03,20,07,09,968.81
2013,03,20,07,10,969.08
2013,03,20,07,11,969.08
2013,03,20,07,12,969.08
2013,03,20,07,13,969.08
2013,03,20,07,14,969.08
2013,03,20,07,15,969.08
2013,03,20,07,16,969.08
2013,03,20,07,17,969.08
2013,03,20,07,18,969.08
2013,03,20,07,19,969.08
2013,03,20,07,20,969.08
2013,03,20,07,21,969.08
2013,03,20,07,22,969.08
2013,03,20,07,23,969.08
2013,03,20,07,24,969.08
2013,03,20,07,25,969.01
2013,03,20,07,26,969.01
2013,03,20,07,27,969.01
2013,03,20,07,28,969.01
2013,03,20,07,29,969.01
2013,03,20,07,30,969.01
2013,03,20,07,31,969.01
2013,03,20,07,32,969.01
2013,03,20,07,33,969.01
2013,03,20,07,34,969.01
2013,03,20,07,35,969.01
2013,03,20,07,36,969.01
2013,03,20,07,37,969.01
2013,03,20,07,38,969.01
2013,03,20,07,39,969.01
2013,03,20,07,40,969.25
2013,03,20,07,41,969.25
2013,03,20,07,42,969.25
2013,03,20,07,43,969.25
2013,03,20,07,44,969.25
2013,03,20,07,45,969.25
2013,03,20,07,46,969.25
2013,03,20,07,47,969.25
2013,03,20,07,48,969.25
2013,03,20,07,49,969.25
2013,03,20,07,50,969.25
2013,03,20,07,51,969.25
2013,03,20,07,52,969.25
2013,03,20,07,53,969.25
2013,03,20,07,54,969.25
2013,03,20,07,55,969.25
2013,03,20,07,56,969.25
2013,03,20,07,57,969.25
2013,03,20,07,58,969.25
2013,03,20,07,59,969.25
2013,03,20,08,00,969.25
2013,03,20,08,01,969.25
2013,03,20,08,02,969.25
2013,03,20,08,03,969.25
2013,03,20,08,04,969.25
2013,03,20,08,05,969.25
2013,03,20,08,06,969.25
2013,03,20,08,07,969.25
2013,03,20,08,08,969.25
2013,03,20,08,09,969.25
2013,03,20,08,10,968.85
2013,03,20,08,11,968.85
2013,03,20,08,12,968.85
2013,03,20,08,13,968.85
2013,03,20,08,14,968.85
2013,03,20,08,15,968.85
2013,03,20,08,16,968.85
2013,03,20,08,17,968.85
2013,03,20,08,18,968.85
2013,03,20,08,19,968.85
2013,03,20,08,20,968.85
2013,03,20,08,21,968.85
2013,03,20,08,22,968.85
2013,03,20,08,23,968.85
2013,03,20,08,24,968.85
2013,03,20,08,25,968.98
2013,03,20,08,26,968.98
2013,03,20,08,27,968.98
2013,03,20,08,28,968.98
2013,03,20,08,29,968.98
2013,03,20,08,30,968.98
2013,03,20,08,31,968.98
2013,03,20,08,32,968.98
2013,03,20,08,33,968.98
2013,03,20,08,34,968.98
2013,03,20,08,35,968.98
2013,03,20,08,36,968.98
2013,03,20,08,37,968.98
2013,03,20,08,38,968.98
2013,03,20,08,39,968.98
2013,03,20,08,40,968.88
2013,03,20,08,41,968.88
2013,03,20,08,42,968.88
2013,03,20,08,43,968.88
2013,03,20,08,44,968.88
2013,03,20,08,45,968.88
2013,03,20,08,46,968.88
2013,03,20,08,47,968.88
2013,03,20,08,48,968.88
2013,03,20,08,49,968.88
2013,03,20,08,50,968.88
2013,03,20,08,51,968.88
2013,03,20,08,52,968.88
2013,03,20,08,53,968.88
2013,03,20,08,54,968.88
2013,03,20,08,55,969.12
2013,03,20,08,56,969.12
2013,03,20,08,57,969.12
2013,03,20,08,58,969.12
2013,03,20,08,59,969.12
2013,03,20,09,00,969.12
2013,03,20,09,01,969.12
2013,03,20,09,02,969.12
2013,03,20,09,03,969.12
2013,03,20,09,04,969.12
2013,03,20,09,05,969.12
2013,03,20,09,06,969.12
2013,03,20,09,07,969.12
2013,03,20,09,08,969.12
2013,03,20,09,09,969.12
2013,03,20,09,10,969.32
2013,03,20,09,11,969.32
2013,03,20,09,12,969.32
2013,03,20,09,13,969.32
2013,03,20,09,14,969.32
2013,03,20,09,15,969.32
2013,03,20,09,16,969.32
2013,03,20,09,17,969.32
2013,03,20,09,18,969.32
2013,03,20,09,19,969.32
2013,03,20,09,20,969.32
2013,03,20,09,21,969.32
2013,03,20,09,22,969.32
2013,03,20,09,23,969.32
2013,03,20,09,24,969.32
2013,03,20,09,25,969.35
2013,03,20,09,26,969.35
2013,03,20,09,27,969.35
2013,03,20,09,28,969.35
2013,03,20,09,29,969.35
2013,03,20,09,30,969.35
2013,03,20,09,31,969.35
2013,03,20,09,32,969.35
2013,03,20,09,33,969.35
2013,03,20,09,34,969.35
2013,03,20,09,35,969.35
2013,03,20,09,36,969.35
2013,03,20,09,37,969.35
2013,03,20,09,38,969.35
2013,03,20,09,39,969.35
2013,03,20,09,40,969.39
2013,03,20,09,41,969.39
2013,03,20,09,42,969.39
2013,03,20,09,43,969.39
2013,03,20,09,44,969.39
2013,03,20,09,45,969.39
2013,03,20,09,46,969.39
2013,03,20,09,47,969.39
2013,03,20,09,48,969.39
2013,03,20,09,49,969.39
2013,03,20,09,50,969.39
2013,03,20,09,51,969.39
2013,03,20,09,52,969.39
2013,03,20,09,53,969.39
2013,03,20,09,54,969.39
2013,03,20,09,55,969.56
2013,03,20,09,56,969.56
2013,03,20,09,57,969.56
2013,03,20,09,58,969.56
2013,03,20,09,59,969.56
2013,03,20,10,00,969.56
2013,03,20,10,01,969.56
2013,03,20,10,02,969.56
2013,03,20,10,03,969.56
2013,03,20,10,04,969.56
2013,03,20,10,05,969.56
2013,03,20,10,06,969.56
2013,03,20,10,07,969.56
2013,03,20,10,08,969.56
2013,03,20,10,09,969.56
2013,03,20,10,10,969.83
2013,03,20,10,11,969.83
2013,03,20,10,12,969.83
2013,03,20,10,13,969.83
2013,03,20,10,14,969.83
2013,03,20,10,15,969.83
2013,03,20,10,16,969.83
2013,03,20,10,17,969.83
2013,03,20,10,18,969.83
2013,03,20,10,19,969.83
2013,03,20,10,20,969.83
2013,03,20,10,21,969.83
2013,03,20,10,22,969.83
2013,03,20,10,23,969.83
2013,03,20,10,24,969.83
2013,03,20,10,25,969.90
2013,03,20,10,26,969.90
2013,03,20,10,27,969.90
2013,03,20,10,28,969.90
2013,03,20,10,29,969.90
2013,03,20,10,30,969.90
2013,03,20,10,31,969.90
2013,03,20,10,32,969.90
2013,03,20,10,33,969.90
2013,03,20,10,34,969.90
2013,03,20,10,35,969.90
2013,03,20,10,36,969.90
2013,03,20,10,37,969.90
2013,03,20,10,38,969.90
2013,03,20,10,39,969.90
2013,03,20,10,40,970.03
2013,03,20,10,41,970.03
2013,03,20,10,42,970.03
2013,03,20,10,43,970.03
2013,03,20,10,44,970.03
2013,03,20,10,45,970.03
2013,03,20,10,46,970.03
2013,03,20,10,47,970.03
2013,03,20,10,48,970.03
2013,03,20,10,49,970.03
2013,03,20,10,50,970.03
2013,03,20,10,51,970.03
2013,03,20,10,52,970.03
2013,03,20,10,53,970.03
2013,03,20,10,54,970.03
2013,03,20,10,55,970.40
2013,03,20,10,56,970.40
2013,03,20,10,57,970.40
2013,03,20,10,58,970.40
2013,03,20,10,59,970.40
2013,03,20,11,00,970.40
2013,03,20,11,01,970.40
2013,03,20,11,02,970.40
2013,03,20,11,03,970.40
2013,03,20,11,04,970.40
2013,03,20,11,05,970.40
2013,03,20,11,06,970.40
2013,03,20,11,07,970.40
2013,03,20,11,08,970.40
2013,03,20,11,09,970.40
2013,03,20,11,10,970.47
2013,03,20,11,11,970.47
2013,03,20,11,12,970.47
2013,03,20,11,13,970.47
2013,03,20,11,14,970.47
2013,03,20,11,15,970.47
2013,03,20,11,16,970.47
2013,03,20,11,17,970.47
2013,03,20,11,18,970.47
2013,03,20,11,19,970.47
2013,03,20,11,20,970.47
2013,03,20,11,21,970.47
2013,03,20,11,22,970.47
2013,03,20,11,23,970.47
2013,03,20,11,24,970.47
2013,03,20,11,25,970.88
2013,03,20,11,26,970.88
2013,03,20,11,27,970.88
2013,03,20,11,28,970.88
2013,03,20,11,29,970.88
2013,03,20,11,30,970.88
2013,03,20,11,31,970.88
2013,03,20,11,32,970.88
2013,03,20,11,33,970.88
2013,03,20,11,34,970.88
2013,03,20,11,35,970.88
2013,03,20,11,36,970.88
2013,03,20,11,37,970.88
2013,03,20,11,38,970.88
2013,03,20,11,51,971.01
2013,03,20,11,52,971.01
2013,03,20,11,53,971.01
2013,03,20,11,54,971.01
2013,03,20,11,55,971.42
2013,03,20,11,56,971.42
2013,03,20,11,57,971.42
2013,03,20,11,58,971.42
2013,03,20,11,59,971.42
2013,03,20,12,00,971.42
2013,03,20,12,01,971.42
2013,03,20,12,02,971.42
2013,03,20,12,03,971.42
2013,03,20,12,04,971.42
2013,03,20,12,05,971.42
2013,03,20,12,06,971.42
2013,03,20,12,07,971.42
2013,03,20,12,08,971.42
2013,03,20,12,09,971.42
2013,03,20,12,10,971.49
2013,03,20,12,11,971.49
2013,03,20,12,12,971.49
2013,03,20,12,13,971.49
2013,03,20,12,14,971.49
2013,03,20,12,15,971.49
2013,03,20,12,16,971.49
2013,03,20,12,17,971.49
2013,03,20,12,18,971.49
2013,03,20,12,19,971.49
2013,03,20,12,20,971.49
2013,03,20,12,21,971.49
2013,03,20,12,22,971.49
2013,03,20,12,23,971.49
2013,03,20,12,24,971.49
2013,03,20,12,25,971.69
2013,03,20,12,26,971.69
2013,03,20,12,27,971.69
2013,03,20,12,28,971.69
2013,03,20,12,29,971.69
2013,03,20,12,30,971.69
2013,03,20,12,31,971.69
2013,03,20,12,32,971.69
2013,03,20,12,33,971.69
2013,03,20,12,34,971.69
2013,03,20,12,35,971.69
2013,03,20,12,36,971.69
2013,03,20,12,37,971.69
2013,03,20,12,38,971.69
2013,03,20,12,39,971.69
2013,03,20,12,40,971.96
2013,03,20,12,41,971.96
2013,03,20,12,42,971.96
2013,03,20,12,43,971.96
2013,03,20,12,44,971.96
2013,03,20,12,45,971.96
2013,03,20,12,46,971.96
2013,03,20,12,47,971.96
2013,03,20,12,48,971.96
2013,03,20,12,49,971.96
2013,03,20,12,50,971.96
2013,03,20,12,51,971.96
2013,03,20,12,52,971.96
2013,03,20,12,53,971.96
2013,03,20,12,54,971.96
2013,03,20,12,55,972.33
2013,03,20,12,56,972.33
2013,03,20,12,57,972.33
2013,03,20,12,58,972.33
2013,03,20,12,59,972.33
2013,03,20,13,00,972.33
2013,03,20,13,01,972.33
2013,03,20,13,02,972.33
2013,03,20,13,03,972.33
2013,03,20,13,04,972.33
2013,03,20,13,05,972.33
2013,03,20,13,06,972.33
2013,03,20,13,07,972.33
2013,03,20,13,08,972.33
2013,03,20,13,09,972.33
2013,03,20,13,10,972.47
2013,03,20,13,11,972.47
2013,03,20,13,12,972.47
2013,03,20,13,13,972.47
2013,03,20,13,14,972.47
2013,03,20,13,15,972.47
2013,03,20,13,16,972.47
2013,03,20,13,17,972.47
2013,03,20,13,18,972.47
2013,03,20,13,19,972.47
2013,03,20,13,20,972.47
2013,03,20,13,21,972.47
2013,03,20,13,22,972.47
2013,03,20,13,23,972.47
2013,03,20,13,24,972.47
2013,03,20,13,25,972.94
2013,03,20,13,26,972.94
2013,03,20,13,27,972.94
2013,03,20,13,28,972.94
2013,03,20,13,29,972.94
2013,03,20,13,30,972.94
2013,03,20,13,31,972.94
2013,03,20,13,32,972.94
2013,03,20,13,33,972.94
2013,03,20,13,34,972.94
2013,03,20,13,35,972.94
2013,03,20,13,36,972.94
2013,03,20,13,37,972.94
2013,03,20,13,38,972.94
2013,03,20,13,39,972.94
2013,03,20,13,40,972.98
2013,03,20,13,41,972.98
2013,03,20,13,42,972.98
2013,03,20,13,43,972.98
2013,03,20,13,44,972.98
2013,03,20,13,45,972.98
2013,03,20,13,46,972.98
2013,03,20,13,47,972.98
2013,03,20,13,48,972.98
2013,03,20,13,49,972.98
2013,03,20,13,50,972.98
2013,03,20,13,51,972.98
2013,03,20,13,52,972.98
2013,03,20,13,53,972.98
2013,03,20,13,54,972.98
2013,03,20,13,55,974.06
2013,03,20,13,56,974.06
2013,03,20,13,57,974.06
2013,03,20,13,58,974.06
2013,03,20,13,59,974.06
2013,03,20,14,00,974.06
2013,03,20,14,01,974.06
2013,03,20,14,02,974.06
2013,03,20,14,03,974.06
2013,03,20,14,04,974.06
2013,03,20,14,05,974.06
2013,03,20,14,06,974.06
2013,03,20,14,07,974.06
2013,03,20,14,08,974.06
2013,03,20,14,09,974.06
2013,03,20,14,10,974.67
2013,03,20,14,11,974.67
2013,03,20,14,12,974.67
2013,03,20,14,13,974.67
2013,03,20,14,14,974.67
2013,03,20,14,15,974.67
2013,03,20,14,16,974.67
2013,03,20,14,17,974.67
2013,03,20,14,18,974.67
2013,03,20,14,19,974.67
2013,03,20,14,20,974.67
2013,03,20,14,21,974.67
2013,03,20,14,22,974.67
2013,03,20,14,23,974.67
2013,03,20,14,24,974.67
2013,03,20,14,25,975.08
2013,03,20,14,26,975.08
2013,03,20,14,27,975.08
2013,03,20,14,28,975.08
2013,03,20,14,29,975.08
2013,03,20,14,30,975.08
2013,03,20,14,31,975.08
2013,03,20,14,32,975.08
2013,03,20,14,33,975.08
2013,03,20,14,34,975.08
2013,03,20,14,35,975.08
2013,03,20,14,36,975.08
2013,03,20,14,37,975.08
2013,03,20,14,38,975.08
2013,03,20,14,39,975.08
2013,03,20,14,40,976.06
2013,03,20,14,41,976.06
2013,03,20,14,42,976.06
2013,03,20,14,43,976.06
2013,03,20,14,44,976.06
2013,03,20,14,45,976.06
2013,03,20,14,46,976.06
2013,03,20,14,47,976.06
2013,03,20,14,48,976.06
2013,03,20,14,49,976.06
2013,03,20,14,50,976.06
2013,03,20,14,51,976.06
2013,03,20,14,52,976.06
2013,03,20,14,53,976.06
2013,03,20,14,54,976.06
2013,03,20,14,55,976.67
2013,03,20,14,56,976.67
2013,03,20,14,57,976.67
2013,03,20,14,58,976.67
2013,03,20,14,59,976.67
2013,03,20,15,00,976.67
2013,03,20,15,01,976.67
2013,03,20,15,02,976.67
2013,03,20,15,03,976.67
2013,03,20,15,04,976.67
2013,03,20,15,05,976.67
2013,03,20,15,06,976.67
2013,03,20,15,07,976.67
2013,03,20,15,08,976.67
2013,03,20,15,09,976.67
2013,03,20,15,10,977.18
2013,03,20,15,11,977.18
2013,03,20,15,12,977.18
2013,03,20,15,13,977.18
2013,03,20,15,14,977.18
2013,03,20,15,15,977.18
2013,03,20,15,16,977.18
2013,03,20,15,17,977.18
2013,03,20,15,18,977.18
2013,03,20,15,19,977.18
2013,03,20,15,20,977.18
2013,03,20,15,21,977.18
2013,03,20,15,22,977.18
2013,03,20,15,23,977.18
2013,03,20,15,24,977.18
2013,03,20,15,25,977.95
2013,03,20,15,26,977.95
2013,03,20,15,27,977.95
2013,03,20,15,28,977.95
2013,03,20,15,29,977.95
2013,03,20,15,30,977.95
2013,03,20,15,31,977.95
2013,03,20,15,32,977.95
2013,03,20,15,33,977.95
2013,03,20,15,34,977.95
2013,03,20,15,35,977.95
2013,03,20,15,36,977.95
2013,03,20,15,37,977.95
2013,03,20,15,38,977.95
2013,03,20,15,39,977.95
2013,03,20,15,40,978.73
2013,03,20,15,41,978.73
2013,03,20,15,42,978.73
2013,03,20,15,43,978.73
2013,03,20,15,44,978.73
2013,03,20,15,45,978.73
2013,03,20,15,46,978.73
2013,03,20,15,47,978.73
2013,03,20,15,48,978.73
2013,03,20,15,49,978.73
2013,03,20,15,50,978.73
2013,03,20,15,51,978.73
2013,03,20,15,52,978.73
2013,03,20,15,53,978.73
2013,03,20,15,54,978.73
2013,03,20,15,55,979.48
2013,03,20,15,56,979.48
2013,03,20,15,57,979.48
2013,03,20,15,58,979.48
2013,03,20,15,59,979.48
2013,03,20,16,00,979.48
2013,03,20,16,01,979.48
2013,03,20,16,02,979.48
2013,03,20,16,03,979.48
2013,03,20,16,04,979.48
2013,03,20,16,05,979.48
2013,03,20,16,06,979.48
2013,03,20,16,07,979.48
2013,03,20,16,08,979.48
2013,03,20,16,09,979.48
2013,03,20,16,10,980.26
2013,03,20,16,11,980.26
2013,03,20,16,12,980.26
2013,03,20,16,13,980.26
2013,03,20,16,14,980.26
2013,03,20,16,15,980.26
2013,03,20,16,16,980.26
2013,03,20,16,17,980.26
2013,03,20,16,18,980.26
2013,03,20,16,19,980.26
2013,03,20,16,20,980.26
2013,03,20,16,21,980.26
2013,03,20,16,22,980.26
2013,03,20,16,23,980.26
2013,03,20,16,24,980.26
2013,03,20,16,25,980.63
2013,03,20,16,26,980.63
2013,03,20,16,27,980.63
2013,03,20,16,28,980.63
2013,03,20,16,29,980.63
2013,03,20,16,30,980.63
2013,03,20,16,31,980.63
2013,03,20,16,32,980.63
2013,03,20,16,33,980.63
2013,03,20,16,34,980.63
2013,03,20,16,35,980.63
2013,03,20,16,36,980.63
2013,03,20,16,37,980.63
2013,03,20,16,38,980.63
2013,03,20,16,39,980.63
2013,03,20,16,40,981.10
2013,03,20,16,41,981.10
2013,03,20,16,42,981.10
2013,03,20,16,43,981.10
2013,03,20,16,44,981.10
2013,03,20,16,45,981.10
2013,03,20,16,46,981.10
2013,03,20,16,47,981.10
2013,03,20,16,48,981.10